FW5380 Weather Reports


Display with metric or nautical units.
time (UTC)temp
F
wind
direction
speed
MPH
gust
MPH
rain 1hr
in
rain 24hr
in
rain mn
in
humidity
%
barometer
mb
20260504231531 81 347 6.0 12.0 0.00 0.00 0.00 41 1010.9
20260504230030 81 353 6.0 12.0 0.00 0.00 0.00 40 1011.0
20260504224532 81 342 7.0 14.0 0.00 0.00 0.00 38 1011.2
20260504221606 81 328 6.0 15.0 0.00 0.00 0.00 36 1011.5
20260504220032 82 321 4.0 13.0 0.00 0.00 0.00 35 1011.6
20260504214531 83 313 4.0 8.0 0.00 0.00 0.00 34 1011.8
20260504213031 82 322 4.0 9.0 0.00 0.00 0.00 35 1011.9
20260504211531 81 343 3.0 9.0 0.00 0.00 0.00 34 1012.0
20260504210026 81 2 3.0 10.0 0.00 0.00 0.00 33 1012.2
20260504204531 81 346 4.0 11.0 0.00 0.00 0.00 34 1012.3
20260504201529 79 330 5.0 10.0 0.00 0.00 0.00 36 1012.5
20260504200032 79 311 5.0 12.0 0.00 0.00 0.00 38 1012.6
20260504191531 79 327 7.0 14.0 0.00 0.00 0.00 40 1012.8
20260504190032 80 336 7.0 13.0 0.00 0.00 0.00 40 1012.8
20260504184605 79 332 6.0 11.0 0.00 0.00 0.00 43 1013.0
20260504183145 76 351 5.0 10.0 0.00 0.00 0.00 45 1013.0
20260504180031 77 345 3.0 9.0 0.00 0.00 0.00 47 1013.0
20260504174530 76 329 3.0 7.0 0.00 0.00 0.00 47 1013.0
20260504173114 75 332 2.0 7.0 0.00 0.00 0.00 47 1013.0
20260504171530 75 343 3.0 8.0 0.00 0.00 0.00 47 1012.9
20260504170108 76 335 1.0 7.0 0.00 0.00 0.00 47 1012.9
20260504160145 71 34 1.0 5.0 0.00 0.00 0.00 52 1013.3
20260504130107 49 215 1.0 4.0 0.00 0.00 0.00 76 1012.4
20260504120103 54 214 1.0 5.0 0.00 0.00 0.00 71 1012.6
20260504081530 58 184 4.0 8.0 0.00 0.00 0.00 61 1013.1
20260504044531 61 175 4.0 6.0 0.00 0.00 0.00 61 1012.8
20260504043032 59 173 4.0 6.0 0.00 0.00 0.00 64 1012.7
20260504041530 60 191 2.0 4.0 0.00 0.00 0.00 65 1012.5
20260504040037 62 160 1.0 3.0 0.00 0.00 0.00 63 1012.3
20260504034533 62 135 2.0 3.0 0.00 0.00 0.00 64 1012.2
20260504033032 63 146 2.0 4.0 0.00 0.00 0.00 64 1012.1
20260504031532 66 175 3.0 5.0 0.00 0.00 0.00 64 1012.0
20260504030030 69 180 3.0 4.0 0.00 0.00 0.00 62 1011.9
20260504024531 72 180 2.0 4.0 0.00 0.00 0.00 59 1011.9
20260504023030 76 165 2.0 3.0 0.00 0.00 0.00 51 1011.8
20260504021606 78 62 0.0 0.0 0.00 0.00 0.00 47 1011.9
20260504014531 81 37 0.0 4.0 0.00 0.00 0.00 36 1012.0
20260504011530 82 3 2.0 5.0 0.00 0.00 0.00 32 1012.3
20260504010031 83 12 2.0 5.0 0.00 0.00 0.00 31 1012.4
20260504004603 83 357 2.0 5.0 0.00 0.00 0.00 31 1012.6
20260504003031 84 2 3.0 7.0 0.00 0.00 0.00 31 1012.7
20260504001527 84 358 3.0 7.0 0.00 0.00 0.00 29 1012.8
20260504000031 84 13 3.0 9.0 0.00 0.00 0.00 29 1012.9
20260503234529 84 12 3.0 7.0 0.00 0.00 0.00 30 1013.1